| time (UTC) | temp F | wind direction | speed MPH | gust MPH | rain 1hr in | rain 24hr in | rain mn in | humidity % | barometer mb |
| 20260905140516 | 71 | 45 | 5.0 | 10.0 | 0.00 | 0.37 | 0.01 | 98 | 1017.3 |
| 20260905135516 | 71 | 68 | 3.0 | 11.0 | 0.00 | 0.37 | 0.01 | 99 | 1017.2 |
| 20260905134536 | 71 | 90 | 3.0 | 8.0 | 0.00 | 0.37 | 0.01 | 99 | 1016.9 |
| 20260905133516 | 71 | 68 | 2.0 | 6.0 | 0.00 | 0.37 | 0.01 | 98 | 1016.7 |
| 20260905132516 | 71 | 90 | 2.0 | 7.0 | 0.00 | 0.37 | 0.01 | 99 | 1016.5 |
| 20260905131516 | 71 | 68 | 3.0 | 6.0 | 0.01 | 0.37 | 0.01 | 99 | 1016.6 |
| 20260905130516 | 71 | 90 | 2.0 | 4.0 | 0.01 | 0.37 | 0.01 | 99 | 1016.6 |
| 20260905125516 | 71 | 45 | 2.0 | 4.0 | 0.01 | 0.37 | 0.01 | 99 | 1016.5 |
| 20260905124536 | 71 | 68 | 4.0 | 9.0 | 0.01 | 0.37 | 0.01 | 99 | 1016.3 |
| 20260905123516 | 71 | 68 | 3.0 | 6.0 | 0.01 | 0.37 | 0.01 | 99 | 1016.3 |
| 20260905122516 | 71 | 45 | 2.0 | 7.0 | 0.01 | 0.37 | 0.01 | 99 | 1016.5 |
| 20260905121516 | 71 | 0.0 | 1.0 | 0.00 | 0.36 | 0.00 | 99 | 1016.3 | |
| 20260905120536 | 70 | 0.0 | 3.0 | 0.00 | 0.36 | 0.00 | 99 | 1016.1 | |
| 20260905115516 | 70 | 45 | 1.0 | 3.0 | 0.00 | 0.36 | 0.00 | 98 | 1015.9 |
| 20260905114516 | 70 | 0.0 | 0.0 | 0.00 | 0.36 | 0.00 | 99 | 1016.0 | |
| 20260905113536 | 70 | 0.0 | 2.0 | 0.00 | 0.36 | 0.00 | 98 | 1015.9 | |
| 20260905112516 | 70 | 0.0 | 2.0 | 0.00 | 0.36 | 0.00 | 99 | 1015.6 | |
| 20260905111517 | 69 | 68 | 3.0 | 5.0 | 0.00 | 0.36 | 0.00 | 99 | 1015.2 |
| 20260905110516 | 69 | 0.0 | 0.0 | 0.00 | 0.36 | 0.00 | 98 | 1015.1 | |
| 20260905105516 | 69 | 0.0 | 0.0 | 0.00 | 0.36 | 0.00 | 98 | 1015.0 | |
| 20260905104516 | 69 | 0.0 | 1.0 | 0.00 | 0.41 | 0.00 | 98 | 1015.0 | |
| 20260905103517 | 69 | 0.0 | 2.0 | 0.00 | 0.41 | 0.00 | 98 | 1014.7 | |
| 20260905102636 | 69 | 68 | 2.0 | 3.0 | 0.00 | 0.41 | 0.00 | 98 | 1014.7 |
| 20260905101516 | 69 | 68 | 1.0 | 3.0 | 0.00 | 0.41 | 0.00 | 98 | 1014.7 |
| 20260905100516 | 68 | 0.0 | 0.0 | 0.00 | 0.41 | 0.00 | 98 | 1014.6 | |
| 20260905095516 | 68 | 0.0 | 0.0 | 0.00 | 0.41 | 0.00 | 98 | 1014.6 | |
| 20260905094516 | 68 | 68 | 1.0 | 3.0 | 0.00 | 0.41 | 0.00 | 98 | 1014.7 |
| 20260905093536 | 68 | 0.0 | 3.0 | 0.00 | 0.41 | 0.00 | 98 | 1014.7 | |
| 20260905092516 | 68 | 0.0 | 0.0 | 0.00 | 0.41 | 0.00 | 98 | 1014.6 | |
| 20260905091516 | 68 | 68 | 2.0 | 4.0 | 0.00 | 0.41 | 0.00 | 98 | 1014.8 |
| 20260905090516 | 68 | 0.0 | 0.0 | 0.00 | 0.41 | 0.00 | 98 | 1014.8 | |
| 20260905085516 | 68 | 0.0 | 0.0 | 0.00 | 0.41 | 0.00 | 98 | 1014.8 | |
| 20260905084516 | 68 | 0.0 | 0.0 | 0.00 | 0.41 | 0.00 | 98 | 1014.9 | |
| 20260905083516 | 69 | 0.0 | 0.0 | 0.00 | 0.41 | 0.00 | 98 | 1014.8 | |
| 20260905082557 | 69 | 0.0 | 0.0 | 0.00 | 0.41 | 0.00 | 98 | 1014.8 | |
| 20260905081536 | 68 | 0.0 | 0.0 | 0.00 | 0.41 | 0.00 | 98 | 1014.8 | |
| 20260905080536 | 68 | 0.0 | 0.0 | 0.00 | 0.41 | 0.00 | 98 | 1014.8 | |
| 20260905075515 | 68 | 0.0 | 0.0 | 0.00 | 0.41 | 0.00 | 97 | 1014.8 | |
| 20260905074536 | 68 | 0.0 | 0.0 | 0.00 | 0.41 | 0.00 | 97 | 1014.8 | |
| 20260905073515 | 68 | 0.0 | 0.0 | 0.00 | 0.41 | 0.00 | 97 | 1014.7 | |
| 20260905072515 | 69 | 0.0 | 0.0 | 0.00 | 0.41 | 0.00 | 98 | 1014.7 | |
| 20260905071515 | 69 | 0.0 | 0.0 | 0.00 | 0.41 | 0.00 | 98 | 1014.8 | |
| 20260905070536 | 69 | 0.0 | 1.0 | 0.00 | 0.41 | 0.00 | 98 | 1014.8 | |
| 20260905065656 | 69 | 45 | 2.0 | 3.0 | 0.00 | 0.41 | 0.00 | 98 | 1014.8 |
| 20260905064535 | 68 | 0.0 | 1.0 | 0.00 | 0.41 | 0.00 | 98 | 1014.8 | |
| 20260905063515 | 68 | 0.0 | 1.0 | 0.00 | 0.41 | 0.00 | 98 | 1014.8 | |
| 20260905062537 | 68 | 0.0 | 0.0 | 0.00 | 0.41 | 0.00 | 98 | 1014.6 | |
| 20260905061537 | 68 | 45 | 1.0 | 4.0 | 0.00 | 0.41 | 0.00 | 98 | 1014.7 |
| 20260905060515 | 68 | 0.0 | 0.0 | 0.00 | 0.41 | 0.00 | 97 | 1014.6 | |
| 20260905055516 | 68 | 0.0 | 0.0 | 0.00 | 0.41 | 0.00 | 97 | 1014.6 | |
| 20260905054515 | 68 | 45 | 1.0 | 3.0 | 0.00 | 0.41 | 0.00 | 97 | 1014.5 |
| 20260905053515 | 68 | 45 | 2.0 | 4.0 | 0.00 | 0.41 | 0.00 | 97 | 1014.6 |
| 20260905052515 | 68 | 270 | 1.0 | 3.0 | 0.00 | 0.41 | 0.00 | 97 | 1014.6 |
| 20260905051535 | 68 | 90 | 2.0 | 4.0 | 0.00 | 0.41 | 0.00 | 96 | 1014.7 |
| 20260905050515 | 68 | 0.0 | 0.0 | 0.00 | 0.41 | 0.00 | 97 | 1014.5 | |
| 20260905045516 | 69 | 0.0 | 0.0 | 0.00 | 0.41 | 0.41 | 97 | 1014.4 | |
| 20260905044516 | 69 | 0.0 | 0.0 | 0.00 | 0.41 | 0.41 | 96 | 1014.5 | |
| 20260905043516 | 69 | 0.0 | 0.0 | 0.00 | 0.41 | 0.41 | 96 | 1014.5 | |
| 20260905042516 | 69 | 68 | 2.0 | 4.0 | 0.00 | 0.41 | 0.41 | 96 | 1014.6 |
| 20260905041536 | 69 | 0.0 | 0.0 | 0.00 | 0.41 | 0.41 | 96 | 1014.2 | |
| 20260905040516 | 69 | 45 | 1.0 | 4.0 | 0.00 | 0.42 | 0.41 | 96 | 1014.4 |
| 20260905035516 | 69 | 68 | 3.0 | 5.0 | 0.00 | 0.43 | 0.41 | 96 | 1014.4 |
| 20260905034536 | 69 | 225 | 2.0 | 3.0 | 0.00 | 0.43 | 0.41 | 96 | 1014.2 |
| 20260905033516 | 69 | 270 | 3.0 | 6.0 | 0.00 | 0.43 | 0.41 | 95 | 1014.3 |
| 20260905032516 | 70 | 0.0 | 0.0 | 0.00 | 0.43 | 0.41 | 93 | 1014.4 | |
| 20260905031516 | 70 | 45 | 2.0 | 3.0 | 0.00 | 0.43 | 0.41 | 92 | 1014.4 |
| 20260905030516 | 71 | 158 | 1.0 | 4.0 | 0.00 | 0.43 | 0.41 | 92 | 1014.4 |
| 20260905025538 | 71 | 0.0 | 0.0 | 0.00 | 0.43 | 0.41 | 92 | 1014.3 | |
| 20260905024516 | 71 | 0.0 | 0.0 | 0.00 | 0.43 | 0.41 | 93 | 1014.2 | |
| 20260905023516 | 71 | 0.0 | 2.0 | 0.00 | 0.43 | 0.41 | 94 | 1014.2 | |
| 20260905022516 | 70 | 45 | 2.0 | 4.0 | 0.00 | 0.43 | 0.41 | 95 | 1014.2 |
| 20260905021516 | 71 | 270 | 2.0 | 3.0 | 0.00 | 0.43 | 0.41 | 94 | 1014.2 |
| 20260905020556 | 72 | 0.0 | 2.0 | 0.00 | 0.43 | 0.41 | 92 | 1014.2 | |
| 20260905015516 | 73 | 0.0 | 0.0 | 0.00 | 0.43 | 0.41 | 91 | 1014.2 | |
| 20260905014516 | 73 | 0.0 | 0.0 | 0.00 | 0.43 | 0.41 | 91 | 1014.3 | |
| 20260905013516 | 73 | 90 | 2.0 | 4.0 | 0.00 | 0.43 | 0.41 | 91 | 1014.2 |
| 20260905012516 | 73 | 90 | 1.0 | 3.0 | 0.00 | 0.43 | 0.41 | 91 | 1014.4 |
| 20260905011536 | 73 | 0.0 | 2.0 | 0.00 | 0.43 | 0.41 | 90 | 1014.2 | |
| 20260905010516 | 73 | 0.0 | 2.0 | 0.00 | 0.43 | 0.41 | 91 | 1014.1 | |
| 20260905005516 | 73 | 68 | 2.0 | 3.0 | 0.00 | 0.43 | 0.41 | 91 | 1013.9 |
| 20260905004516 | 74 | 0.0 | 3.0 | 0.00 | 0.43 | 0.41 | 89 | 1014.0 | |
| 20260905003516 | 75 | 0.0 | 0.0 | 0.00 | 0.43 | 0.41 | 87 | 1013.9 | |
| 20260905002516 | 76 | 0.0 | 0.0 | 0.00 | 0.43 | 0.41 | 85 | 1013.6 | |
| 20260905001516 | 76 | 0.0 | 0.0 | 0.00 | 0.43 | 0.41 | 85 | 1013.6 | |
| 20260905000516 | 77 | 0.0 | 2.0 | 0.00 | 0.43 | 0.41 | 84 | 1013.3 | |
| 20260904235516 | 77 | 0.0 | 2.0 | 0.00 | 0.43 | 0.41 | 84 | 1013.2 | |
| 20260904234515 | 77 | 225 | 2.0 | 4.0 | 0.00 | 0.43 | 0.41 | 86 | 1013.3 |
| 20260904233536 | 77 | 270 | 1.0 | 4.0 | 0.00 | 0.43 | 0.41 | 86 | 1013.3 |
| 20260904232535 | 77 | 270 | 2.0 | 6.0 | 0.00 | 0.43 | 0.41 | 84 | 1013.3 |
| 20260904231515 | 77 | 248 | 2.0 | 6.0 | 0.00 | 0.43 | 0.41 | 86 | 1013.4 |
| 20260904230515 | 76 | 270 | 2.0 | 4.0 | 0.00 | 0.43 | 0.41 | 88 | 1013.3 |
| 20260904225516 | 75 | 270 | 2.0 | 6.0 | 0.00 | 0.43 | 0.41 | 91 | 1013.5 |
| 20260904224515 | 74 | 225 | 2.0 | 6.0 | 0.00 | 0.43 | 0.41 | 91 | 1013.5 |
| 20260904223515 | 75 | 225 | 3.0 | 5.0 | 0.00 | 0.43 | 0.41 | 90 | 1013.5 |
| 20260904222515 | 75 | 248 | 3.0 | 8.0 | 0.00 | 0.43 | 0.41 | 91 | 1013.4 |
| 20260904221515 | 75 | 248 | 4.0 | 8.0 | 0.00 | 0.43 | 0.41 | 91 | 1013.4 |
| 20260904220516 | 76 | 248 | 1.0 | 4.0 | 0.00 | 0.43 | 0.41 | 92 | 1013.2 |
| 20260904215535 | 76 | 0.0 | 1.0 | 0.00 | 0.43 | 0.41 | 90 | 1012.8 | |
| 20260904214515 | 76 | 293 | 1.0 | 3.0 | 0.00 | 0.43 | 0.41 | 90 | 1012.5 |
| 20260904213516 | 76 | 248 | 1.0 | 3.0 | 0.00 | 0.43 | 0.41 | 92 | 1012.9 |
| 20260904212535 | 76 | 225 | 2.0 | 4.0 | 0.00 | 0.43 | 0.41 | 94 | 1012.8 |
| 20260904211515 | 76 | 225 | 4.0 | 10.0 | 0.00 | 0.43 | 0.41 | 96 | 1013.4 |
| 20260904210515 | 76 | 0.0 | 1.0 | 0.00 | 0.43 | 0.41 | 97 | 1013.2 | |
| 20260904205556 | 76 | 270 | 2.0 | 4.0 | 0.00 | 0.43 | 0.41 | 96 | 1013.1 |
| 20260904204537 | 76 | 248 | 3.0 | 6.0 | 0.00 | 0.43 | 0.41 | 96 | 1013.4 |
| 20260904203517 | 76 | 225 | 2.0 | 3.0 | 0.00 | 0.43 | 0.41 | 96 | 1013.2 |
| 20260904202535 | 77 | 0.0 | 0.0 | 0.00 | 0.43 | 0.41 | 96 | 1012.8 | |
| 20260904201515 | 77 | 0.0 | 0.0 | 0.00 | 0.43 | 0.41 | 96 | 1013.3 | |
| 20260904200517 | 77 | 0.0 | 1.0 | 0.00 | 0.43 | 0.41 | 96 | 1013.0 | |
| 20260904195535 | 77 | 0.0 | 3.0 | 0.00 | 0.43 | 0.41 | 96 | 1012.9 | |
| 20260904194535 | 76 | 135 | 1.0 | 5.0 | 0.00 | 0.43 | 0.41 | 96 | 1012.9 |
| 20260904193515 | 76 | 135 | 3.0 | 4.0 | 0.00 | 0.43 | 0.41 | 96 | 1013.0 |
| 20260904192515 | 75 | 0.0 | 2.0 | 0.00 | 0.43 | 0.41 | 96 | 1013.0 | |
| 20260904191515 | 75 | 135 | 2.0 | 4.0 | 0.00 | 0.43 | 0.41 | 96 | 1013.0 |
| 20260904190515 | 74 | 225 | 1.0 | 3.0 | 0.00 | 0.43 | 0.41 | 96 | 1013.5 |
| 20260904185515 | 74 | 248 | 2.0 | 3.0 | 0.00 | 0.43 | 0.41 | 95 | 1013.5 |
| 20260904184517 | 74 | 0.0 | 2.0 | 0.01 | 0.43 | 0.41 | 96 | 1013.6 | |
| 20260904183515 | 75 | 248 | 2.0 | 5.0 | 0.03 | 0.43 | 0.41 | 96 | 1013.5 |
| 20260904182515 | 75 | 270 | 2.0 | 4.0 | 0.03 | 0.43 | 0.41 | 96 | 1013.5 |
| 20260904181515 | 75 | 158 | 2.0 | 5.0 | 0.04 | 0.43 | 0.41 | 96 | 1013.6 |
| 20260904180515 | 76 | 135 | 3.0 | 6.0 | 0.05 | 0.43 | 0.41 | 96 | 1013.8 |
| 20260904175515 | 76 | 135 | 4.0 | 10.0 | 0.06 | 0.43 | 0.41 | 96 | 1013.9 |
| 20260904174515 | 76 | 270 | 1.0 | 3.0 | 0.20 | 0.42 | 0.40 | 96 | 1014.7 |
| 20260904173517 | 76 | 158 | 1.0 | 3.0 | 0.31 | 0.40 | 0.38 | 96 | 1014.5 |
| 20260904172517 | 76 | 158 | 1.0 | 5.0 | 0.32 | 0.40 | 0.38 | 96 | 1014.1 |
| 20260904171517 | 76 | 158 | 3.0 | 7.0 | 0.31 | 0.39 | 0.37 | 95 | 1014.2 |
| 20260904170517 | 76 | 113 | 4.0 | 8.0 | 0.30 | 0.38 | 0.36 | 94 | 1014.1 |
| 20260904165517 | 77 | 113 | 7.0 | 11.0 | 0.29 | 0.37 | 0.35 | 93 | 1013.8 |
| 20260904164517 | 78 | 135 | 5.0 | 12.0 | 0.14 | 0.22 | 0.20 | 91 | 1014.2 |
| 20260904163517 | 80 | 135 | 5.0 | 12.0 | 0.01 | 0.09 | 0.07 | 86 | 1014.7 |
| 20260904162517 | 81 | 113 | 6.0 | 10.0 | 0.00 | 0.08 | 0.06 | 88 | 1014.6 |
| 20260904161519 | 80 | 135 | 5.0 | 11.0 | 0.00 | 0.10 | 0.06 | 90 | 1014.3 |
| 20260904160517 | 80 | 135 | 6.0 | 10.0 | 0.00 | 0.12 | 0.06 | 88 | 1014.2 |
| 20260904155517 | 79 | 135 | 5.0 | 9.0 | 0.00 | 0.18 | 0.06 | 90 | 1014.3 |
| 20260904154537 | 79 | 113 | 4.0 | 10.0 | 0.01 | 0.22 | 0.06 | 89 | 1014.3 |
| 20260904153517 | 80 | 113 | 4.0 | 7.0 | 0.01 | 0.22 | 0.06 | 91 | 1014.3 |
| 20260904152517 | 78 | 135 | 6.0 | 11.0 | 0.01 | 0.24 | 0.06 | 92 | 1014.0 |
| 20260904151517 | 77 | 113 | 4.0 | 10.0 | 0.01 | 0.26 | 0.06 | 92 | 1014.2 |
| 20260904150517 | 77 | 135 | 6.0 | 10.0 | 0.01 | 0.27 | 0.06 | 90 | 1013.9 |
| 20260904145517 | 79 | 135 | 6.0 | 11.0 | 0.01 | 0.27 | 0.06 | 89 | 1014.0 |
| 20260904144517 | 78 | 113 | 6.0 | 12.0 | 0.00 | 0.27 | 0.05 | 92 | 1014.0 |
| 20260904143517 | 77 | 113 | 6.0 | 9.0 | 0.00 | 0.28 | 0.05 | 94 | 1013.8 |
| 20260904142517 | 76 | 135 | 6.0 | 10.0 | 0.00 | 0.28 | 0.05 | 95 | 1013.7 |
| 20260904141517 | 76 | 113 | 4.0 | 7.0 | 0.00 | 0.28 | 0.05 | 98 | 1013.4 |